Location: Champs
(48.8539°N, 2.6040°E)
Time: 13:30:46
(UTC+00:00)

CZ-4C R/B - Pass Details

Date: 26 October 2021
Orbit: 596 x 1405 km, 63.4° (Epoch: 06 December)

Event Time Altitude Azimuth Distance (km) Brightness Sun altitude
Exits shadow 03:10:07 50° 342° (NNW) 1,463 3.3 -32.6°
Maximum altitude 03:12:09 69° 45° (NE) 1,286 3.1 -32.3°
Drops below altitude 10° 03:20:26 10° 128° (SE) 3,385 5.7 -31.0°
Sets 03:23:30 0° 131° (SE) 4,411 6.3 -30.5°
